Regional Weather Roundup
Issued by NWS Grand Forks, ND

Home | Current Version | Previous Version | Graphics & Text | Print | Product List | Glossary On
Versions: 1 2 3 4 5 6 7 8 9 10 11 12 13 14 15 16 17 18 19 20 21 22 23 24 25 26 27 28 29 30 31 32 33 34 35 36 37 38 39 40 41 42 43 44 45 46 47 48 49 50
000
ASUS43 KFGF 230610
RWRFGF
PRAIRIE TO PINES  WEATHER ROUNDUP
NATIONAL WEATHER SERVICE EASTERN NORTH DAKOTA/GRAND FORKS ND
100 AM CDT MON OCT 23 2017

 **SATELLITE DATA USED TO AUGMENT SKY COVER AT AUTOMATED STATIONS**
 *****  WEATHER ACROSS EASTERN NORTH DAKOTA  *****

CITY           SKY/WX    TMP DP  RH WIND       PRES   REMARKS
GRAND FORKS    CLOUDY    59  43  55 SW16G24   29.55F
6HR MIN TEMP:  50; 6HR MAX TEMP:  61; 6HR PCP: TRACE;

GRAND FRKS AFB LGT RAIN  59  45  58 W14       29.56S
DEVILS LAKE    CLOUDY    55  39  54 W22G29    29.60R
6HR MIN TEMP:  45; 6HR MAX TEMP:  56; 6HR PCP: TRACE;

FARGO          MOCLDY    53  42  66 CALM      29.64S
WAHPETON ARPT  NOT AVBL
$$

 ***** WEATHER ACROSS CENTRAL AND WESTERN NORTH DAKOTA  *****

CITY           SKY/WX    TMP DP  RH WIND       PRES   REMARKS
BISMARCK       MOCLDY    55  39  54 W29G44    29.78R
6HR MIN TEMP:  55; 6HR MAX TEMP:  62;

MINOT          FAIR      51  33  50 W17       29.70R
6HR MIN TEMP:  51; 6HR MAX TEMP:  57;

JAMESTOWN      FAIR      54  41  61 W16       29.65S
6HR MIN TEMP:  54; 6HR MAX TEMP:  60; 6HR PCP: TRACE;

MINOT AFB      FAIR      49  33  55 NW24      29.67R
GARRISON         N/A     50  40  68 W14       29.73R
WILLISTON        N/A    N/A N/A N/A MISG      29.83R
DICKINSON      FAIR      49  32  52 W25G43    29.83R
6HR MIN TEMP:  49; 6HR MAX TEMP:  56;

HETTINGER      FAIR      45  37  73 W17       29.91R
6HR MIN TEMP:  43; 6HR MAX TEMP:  54; 6HR PCP: TRACE;

$$

 *****  OTHER AIRPORT OBSERVATIONS IN OUR AREA  *****

CITY           SKY/WX    TMP DP  RH WIND       PRES   REMARKS
WALHALLA       FAIR     N/A N/A N/A W12       29.52R
GRAFTON AIRPOR NOT AVBL
VALLEY CITY AR NOT AVBL
CANDO          MOCLDY    50  39  66 W21       29.60R
CAVALIER APRT  FAIR      48  41  76 SW8       29.52F
GWINNER        CLEAR     59  41  51 SW17      29.68S
SHEYENNE NWR     N/A     59  37  44 W14       29.95S
ROLLA          FAIR      48  36  61 W21       29.57R
 ***** THE ABOVE OBSERVATIONS ARE NON NWS ARE NOT QUALITY
       CONTROLLED AND MAY MIS-REPORT RAIN FOR SNOW...
$$

  *****  WEATHER ACROSS NORTHERN MINNESOTA  *****

CITY           SKY/WX    TMP DP  RH WIND       PRES   REMARKS
FLAG ISLAND    MOCLDY    52  43  71 S6        29.57S
WARROAD        MOCLDY    48  39  71 S5        29.58F
ROSEAU         MOCLDY    52  43  71 S8        29.56F
HALLOCK        MOCLDY    50  39  66 S12       29.52F
THF RVR FALLS  CLOUDY    55  33  43 SW17      29.58F
6HR MIN TEMP:  52; 6HR MAX TEMP:  60; 6HR PCP: TRACE;

BAUDETTE       CLOUDY    54  37  52 S6        29.61F
6HR MIN TEMP:  53; 6HR MAX TEMP:  57;

WASKISH        CLOUDY    55  34  44 S8        29.62F
CROOKSTON      CLOUDY    55  37  50 SW16      29.58F
STEPHEN NDAWN    N/A     52  36  54 S7          N/A
GREENBUSH NDAW   N/A     50  37  62 S8          N/A
$$
  *****  WEATHER ACROSS CENTRAL AND WEST MINNESOTA  *****

CITY           SKY/WX    TMP DP  RH WIND       PRES   REMARKS
FOSSTON        MOCLDY    54  30  40 S20       29.62F
BEMIDJI        FAIR      53  32  45 S9        29.64F
6HR MIN TEMP:  53; 6HR MAX TEMP:  57;

PARK RAPIDS    FAIR      51  35  54 S9        29.68F
6HR MIN TEMP:  51; 6HR MAX TEMP:  56;

ELBOW LAKE     CLOUDY    53  38  58 S9        29.72F
6HR MIN TEMP:  53; 6HR MAX TEMP:  58;

WADENA         FAIR      52  37  58 S8        29.70S
DETROIT LAKES  FAIR      57  36  44 SW12      29.68S
MOORHEAD       DRIZZLE   55  37  50 S8        29.65S
FERGUS FALLS   CLOUDY    57  37  47 S13G20    29.70F
MORRIS MN      MOCLDY    54  37  54 S9        29.73F
STAPLES        FAIR      52  34  50 S13       29.71F
$$
  *****  WEATHER ELSEWHERE ACROSS MINNESOTA  *****

CITY           SKY/WX    TMP DP  RH WIND       PRES   REMARKS
DULUTH         CLOUDY    52  32  46 S13       29.80F
6HR MIN TEMP:  48; 6HR MAX TEMP:  53;

INTRNTL FALLS  CLOUDY    54  32  43 VRB6      29.65F
6HR MIN TEMP:  50; 6HR MAX TEMP:  55;

ELY            CLOUDY    52  28  40 S10G17    29.76F
CLOQUET        CLOUDY    54  28  37 S7        29.80F
WHEATON        LGT RAIN  55  36  47 S10       29.73S
BRAINERD       CLOUDY    54  34  46 S10       29.75F
6HR MIN TEMP:  52; 6HR MAX TEMP:  57; 6HR PCP: TRACE;

HIBBING        CLOUDY    51  31  46 S7        29.74F
6HR MIN TEMP:  44; 6HR MAX TEMP:  51;

ALEXANDRIA     CLOUDY    54  35  48 S13       29.75F
6HR MIN TEMP:  53; 6HR MAX TEMP:  58;

SAINT CLOUD    CLOUDY    53  36  52 S10       29.79F
6HR MIN TEMP:  49; 6HR MAX TEMP:  56;

MINNEAPOLIS    CLOUDY    56  34  43 S9        29.85F
6HR MIN TEMP:  56; 6HR MAX TEMP:  58;

$$

  *****  WEATHER ACROSS SOUTH DAKOTA  *****

CITY           SKY/WX    TMP DP  RH WIND       PRES   REMARKS
SIOUX FALLS    FAIR      54  34  46 S9        29.81F
6HR MIN TEMP:  53; 6HR MAX TEMP:  59;

BROOKINGS      MOCLDY    50  34  54 S5        29.81S
WATERTOWN      CLOUDY    51  39  63 S6        29.78F
6HR MIN TEMP:  50; 6HR MAX TEMP:  55;

HURON          FAIR      51  39  63 W7        29.81R
6HR MIN TEMP:  51; 6HR MAX TEMP:  59; 6HR PCP: TRACE;

SISSETON         N/A     61  37  41 W18G29    29.72R
ABERDEEN       FAIR      54  47  77 W10       29.77S
6HR MIN TEMP:  54; 6HR MAX TEMP:  61; 6HR PCP:  0.01;

MITCHELL       FAIR      50  36  58 S3        29.80R
PIERRE         MOCLDY    54  48  80 W10       29.89R
6HR MIN TEMP:  50; 6HR MAX TEMP:  62; 6HR PCP: TRACE;

MOBRIDGE       FAIR      52  44  74 W16G22    29.82R
RAPID CITY     MOCLDY    54  34  46 NW16      30.02R
6HR MIN TEMP:  51; 6HR MAX TEMP:  65;

$$

  *****  SOME WEATHER IN NEARBY STATES *****

CITY           SKY/WX    TMP DP  RH WIND       PRES   REMARKS
GLASGOW MT     MOCLDY    45  39  79 W20       29.96R
6HR MIN TEMP:  45; 6HR MAX TEMP:  55; 6HR PCP: TRACE;

GREAT FALLS MT FAIR      45  23  42 W22G31    30.17R
6HR MIN TEMP:  42; 6HR MAX TEMP:  50;

CHEYENNE WY    FAIR      54  28  36 NW12      30.19R
6HR MIN TEMP:  51; 6HR MAX TEMP:  58;

SCOTTSBLUFF NE FAIR      60  31  33 W18       30.05R
6HR MIN TEMP:  58; 6HR MAX TEMP:  64;

OMAHA NE       FAIR      48  36  63 SE10      29.94F
6HR MIN TEMP:  48; 6HR MAX TEMP:  59;

DES MOINES IA  FAIR      47  41  80 S9        29.98F
6HR MIN TEMP:  47; 6HR MAX TEMP:  58;

DAVENPORT IA   FAIR      48  46  93 CALM      30.03F FOG
6HR MIN TEMP:  47; 6HR MAX TEMP:  51;

CHICAGO IL     LGT RAIN  51  49  92 N9        29.98F
6HR MIN TEMP:  51; 6HR MAX TEMP:  53; 6HR PCP:  0.15;

EAU CLAIRE WI  FAIR      47  41  80 S9        29.92F
6HR MIN TEMP:  47; 6HR MAX TEMP:  50;

LA CROSSE WI   FAIR      49  45  86 S8        29.98F
6HR MIN TEMP:  48; 6HR MAX TEMP:  53;

$$

  *****  SOME NATIONAL WEATHER *****

CITY           SKY/WX    TMP DP  RH WIND       PRES   REMARKS
LA GUARDIA NY  MOCLDY    62  59  90 CALM      30.35S
6HR MIN TEMP:  61; 6HR MAX TEMP:  69;

RALEIGH NC     MOCLDY    64  62  93 SE7       30.25F
6HR MIN TEMP:  63; 6HR MAX TEMP:  67;

ATLANTA GA     DRIZZLE   67  67 100 E13       30.08F FOG
6HR MIN TEMP:  67; 6HR MAX TEMP:  71; 6HR PCP:  0.02;

NEW ORLEANS LA FAIR      66  63  90 NW12      30.04S
6HR MIN TEMP:  65; 6HR MAX TEMP:  72;

OKLAHOMA CITY  FAIR      46  41  82 S5        30.11F
6HR MIN TEMP:  46; 6HR MAX TEMP:  62;

ALBUQUERQUE NM FAIR      58  23  26 NW10      30.37S
6HR MIN TEMP:  56; 6HR MAX TEMP:  69;

SALT LAKE CITY MOCLDY    53  37  54 W6        30.39R
6HR MIN TEMP:  53; 6HR MAX TEMP:  67;

LOS ANGELES CA FAIR      69  56  62 E5        30.07R
6HR MIN TEMP:  67; 6HR M



USA.gov is the U.S. government's official web portal to all federal, state and local government web resources and services.